[[{"header":{"parameterUnit":"m.s-1","parameterCategory":1,"la1":30.2991,"la2":30.254,"lo1":-89.0895,"lo2":-89.0444,"dy":0.0017,"dx":0.0017,"nx":28,"ny":28,"refTime":"2024-11-24T09:00:00:Z","depth":0,"parameterNumber":2,"parameterNumberName":"U-component_of_WINDS"},"data":[0,0,0,0,0,0,0,0,0,0,0,0,0,0,0,0,0,0,0,0,0,0,0,0,0,0,0,0,0,0,0,0,0,0,0,0,0,0,0,0,0,0,0,0,0,0,0,0,0,0,0,0,0,0,0,0,0,0,3.1221,3.1222,0,3.1357,3.1359,3.136,3.1346,3.1344,3.1342,3.134,3.1483,3.1489,3.1494,0,0,0,0,0,0,0,0,0,0,0,0,0,3.0951,3.0956,3.122,3.1222,3.1224,3.1357,3.1359,3.1361,3.1346,3.1344,3.1341,3.1339,3.1481,3.1488,3.1495,0,0,0,0,0,0,0,0,0,0,0,0,0,3.1076,3.0957,3.122,3.1233,3.1235,3.1356,3.1359,3.1361,3.1347,3.1344,3.134,3.1337,3.1479,3.1487,3.1496,3.1615,0,0,3.1523,3.1526,0,0,0,0,0,0,0,0,3.1069,3.1086,3.1229,3.1232,3.1235,3.1331,3.1316,3.1446,3.1348,3.1305,3.1339,3.1336,3.1435,3.1447,3.148,3.1621,3.1628,3.1523,3.1529,3.1533,3.1535,0,0,0,0,0,0,0,3.106,3.108,3.1275,3.1231,3.1235,3.1233,3.1247,3.1341,3.1387,3.1308,3.1307,3.1323,3.1436,3.1472,3.1484,3.163,3.1523,3.1531,3.1536,3.154,3.1876,3.188,0,0,0,0,0,0,3.1048,3.1073,3.127,3.1279,3.1142,3.124,3.1256,3.1304,3.1385,3.1395,3.1326,3.1322,3.1459,3.1473,3.1489,3.1633,3.1532,3.1541,3.1546,3.1872,3.1877,3.1881,0,0,0,0,0,0,3.1042,3.1066,3.1265,3.1175,3.1201,3.1248,3.1302,3.1308,3.1343,3.1399,3.1407,3.1354,3.1457,3.1476,3.1583,3.1638,3.1545,3.1553,3.1868,3.1874,3.1879,3.1923,0,0,0,0,0,0,3.1034,3.1064,3.1108,3.1177,3.1205,3.1356,3.1305,3.1313,3.1358,3.1354,3.1427,3.1436,3.1456,3.157,3.1592,3.1648,3.1559,3.1863,3.1871,3.1877,3.1917,3.193,3.194,0,0,0,0,0,3.1025,3.1116,3.1111,3.1134,3.1262,3.1359,3.1376,3.1395,3.1362,3.1408,3.1444,3.1434,3.1629,3.1581,3.1606,3.1665,3.186,3.1869,3.1877,3.1912,3.1927,3.194,0,0,0,0,0,0,3.1054,3.1125,3.112,3.1236,3.1291,3.1357,3.1415,3.1411,3.1478,3.1472,3.1494,3.1511,3.1619,3.1653,3.1599,3.1785,3.174,3.1754,3.1759,3.1774,3.1785,3.1774,3.1567,0,0,0,0,0,3.1073,3.1145,3.1204,3.1301,3.1329,3.1367,3.141,3.142,3.148,3.1503,3.1547,3.1606,3.168,3.1729,3.1801,3.1922,3.1938,3.1975,3.1987,3.1996,3.2008,3.2075,3.2092,3.1908,3.1908,3.1908,0,0,3.1115,3.1163,3.1207,3.1308,3.1352,3.1427,3.1387,3.1468,3.1524,3.1516,3.1619,3.1654,3.1721,3.1836,3.1889,3.1868,3.2062,3.2007,3.2014,3.202,3.2086,3.2103,3.2118,3.1914,3.1913,3.1912,0,0,3.1229,3.1272,3.1357,3.1403,3.147,3.1495,3.1516,3.1582,3.1604,3.1708,3.1704,3.1772,3.1899,3.1948,3.1989,3.2122,3.2115,3.2145,3.2206,3.2271,3.2286,3.2299,3.2346,3.2363,3.2156,3.2156,3.2157,0,3.1273,3.1384,3.1402,3.1484,3.1529,3.1524,3.1611,3.1655,3.1742,3.1774,3.1749,3.1909,3.1954,3.2081,3.2113,3.2147,3.2172,3.2137,3.2282,3.2295,3.2308,3.2353,3.2371,3.216,3.2159,3.2159,3.2159,0,3.1434,3.1512,3.1573,3.1657,3.1709,3.1793,3.1825,3.1875,3.1881,3.1909,3.2016,3.207,3.2152,3.2183,3.219,3.2311,3.2296,3.2277,3.2232,3.2328,3.2371,3.2389,3.2164,3.2163,3.2162,3.2161,0,0,3.157,3.1663,3.1685,3.1723,3.1798,3.1859,3.1943,3.2023,3.2066,3.2127,3.2199,3.2308,3.229,3.2337,3.2349,3.2407,3.251,3.238,3.2382,3.2403,3.2647,3.2661,3.2681,3.2506,3.2509,3.2512,3.2641,0,3.1691,3.1839,3.1858,3.199,3.2062,3.2059,3.2133,3.2188,3.2217,3.2283,3.2316,3.2392,3.2363,3.2391,3.2448,3.2485,3.2559,3.2476,3.2574,3.2577,3.2557,3.2704,3.2719,3.2838,3.2658,3.2661,3.2663,0,3.1852,3.1916,3.2055,3.212,3.2151,3.2217,3.2292,3.2356,3.2418,3.2435,3.2488,3.2493,3.2582,3.2534,3.2657,3.26,3.2642,3.2666,3.2671,3.2681,3.2626,3.2717,3.2877,3.2894,3.269,3.2688,3.2686,0,3.1936,3.2058,3.2157,3.219,3.2269,3.2315,3.235,3.2409,3.2456,3.2522,3.2553,3.2629,3.2671,3.273,3.2757,3.2719,3.2879,3.2833,3.2896,3.2896,3.293,3.2927,3.3098,3.2957,3.2957,3.2956,3.2956,0,3.2069,3.2154,3.2196,3.2257,3.2353,3.2375,3.2469,3.2503,3.2556,3.2624,3.2627,3.2691,3.2722,3.2792,3.2813,3.2912,3.2931,3.2948,3.2953,3.2948,3.2946,3.2975,3.2967,3.2961,3.296,3.2959,3.2958,0,3.2179,3.2211,3.2318,3.2384,3.2402,3.247,3.2527,3.2586,3.2615,3.2701,3.2723,3.2768,3.285,3.2883,3.2984,3.2998,3.3112,3.3111,3.3091,3.3092,3.3154,3.3148,3.3349,3.3377,3.3218,3.3219,3.3221,0,3.2262,3.2327,3.2399,3.2445,3.2481,3.2554,3.2602,3.2627,3.2677,3.2754,3.2804,3.2886,3.2952,3.3084,3.3127,3.3204,3.3204,3.327,3.3216,3.3209,3.3205,3.3201,3.3208,3.3279,3.3281,3.3282,3.3283,0,3.2405,3.2417,3.2485,3.256,3.2616,3.2676,3.2735,3.2772,3.2806,3.2862,3.2946,3.2997,3.31,3.3181,3.3261,3.3299,3.3297,3.33,3.3319,3.3314,3.33,3.3308,3.3118,3.3295,3.3294,3.3293,3.3292,3.3292,3.2503,3.2561,3.2621,3.2698,3.2744,3.2799,3.2858,3.2894,3.2964,3.3048,3.3059,3.3149,3.3211,3.3318,3.3359,3.343,3.3413,3.3441,3.3448,3.3454,3.3458,3.3289,3.3445,3.3445,3.3445,3.3444,3.3444,0,3.2646,3.2685,3.2755,3.2836,3.2896,3.2889,3.2954,3.3005,3.3083,3.3141,3.3206,3.3303,3.3382,3.3431,3.3511,3.3559,3.356,3.3579,3.3576,3.3585,3.3469,3.3444,3.3577,3.3577,3.3577,3.3577,3.3577,3.3577,3.2727,3.2825,3.2845,3.2967,3.3005,3.3092,3.313,3.3181,3.3227,3.3334,3.3399,3.3431,3.3485,3.357,3.3642,3.3655,3.3685,3.3705,3.3716,3.3606,3.3593,3.358,3.3557,3.3711,3.3711,3.3826,3.3827,3.3828]},{"header":{"parameterUnit":"m.s-1","parameterCategory":1,"la1":30.2991,"la2":30.254,"lo1":-89.0895,"lo2":-89.0444,"dy":0.0017,"dx":0.0017,"nx":28,"ny":28,"refTime":"2024-11-24T09:00:00:Z","depth":0,"parameterNumber":3,"parameterNumberName":"V-component_of_WINDS"},"data":[0,0,0,0,0,0,0,0,0,0,0,0,0,0,0,0,0,0,0,0,0,0,0,0,0,0,0,0,0,0,0,0,0,0,0,0,0,0,0,0,0,0,0,0,0,0,0,0,0,0,0,0,0,0,0,0,0,0,3.9613,3.9615,0,3.9764,3.9766,3.9767,3.976,3.9758,3.9756,3.9753,3.9905,3.9911,3.9917,0,0,0,0,0,0,0,0,0,0,0,0,0,3.9317,3.9323,3.9613,3.9615,3.9617,3.9764,3.9766,3.9768,3.976,3.9758,3.9755,3.9752,3.9903,3.9911,3.9918,0,0,0,0,0,0,0,0,0,0,0,0,0,3.9454,3.9324,3.9613,3.9631,3.9634,3.9763,3.9766,3.9768,3.9761,3.9757,3.9754,3.9751,3.9901,3.991,3.9919,4.0039,0,0,3.9947,3.9951,0,0,0,0,0,0,0,0,3.9447,3.9465,3.9626,3.963,3.9634,3.974,3.9717,3.9859,3.9762,3.9713,3.9753,3.975,3.9853,3.9866,3.9901,4.0046,4.0053,3.9947,3.9953,3.9957,3.9959,0,0,0,0,0,0,0,3.9437,3.9459,3.9673,3.9629,3.9633,3.9631,3.9647,3.9744,3.9799,3.9717,3.9716,3.9734,3.9854,3.9892,3.9904,4.0055,3.9947,3.9955,3.9961,3.9964,4.0308,4.0311,0,0,0,0,0,0,3.9424,3.9451,3.9668,3.9677,3.953,3.9639,3.9657,3.9709,3.9798,3.9808,3.9737,3.9734,3.9878,3.9894,3.991,4.0058,3.9957,3.9965,3.997,4.0304,4.0309,4.0313,0,0,0,0,0,0,3.9418,3.9443,3.9662,3.9564,3.9592,3.9647,3.9706,3.9714,3.9752,3.9813,3.9823,3.9766,3.9876,3.9897,4.0008,4.0063,3.9969,3.9978,4.03,4.0306,4.0311,4.0354,0,0,0,0,0,0,3.9409,3.9441,3.9488,3.9565,3.9597,3.9758,3.971,3.9719,3.9768,3.9765,3.9843,3.9853,3.9875,3.9994,4.0017,4.0074,3.9985,4.0295,4.0302,4.0309,4.0348,4.0361,4.0371,0,0,0,0,0,3.9399,3.9494,3.9491,3.9517,3.9657,3.9761,3.9779,3.9804,3.9772,3.982,3.9859,3.985,4.0053,4.0005,4.0031,4.0092,4.0292,4.03,4.0308,4.0343,4.0358,4.0371,0,0,0,0,0,0,3.9421,3.9504,3.9502,3.9624,3.9686,3.976,3.9821,3.9819,3.9891,3.9885,3.9911,3.9929,4.004,4.0076,4.0022,4.0213,4.0168,4.0182,4.0186,4.0201,4.0212,4.0202,3.9992,0,0,0,0,0,3.944,3.9518,3.9587,3.9688,3.972,3.9765,3.9811,3.9825,3.9889,3.9915,3.9963,4.0025,4.0103,4.0153,4.0228,4.0353,4.037,4.0407,4.0418,4.0427,4.044,4.0509,4.0527,4.034,4.034,4.034,0,0,3.948,3.9536,3.9583,3.9694,3.9744,3.9824,3.9787,3.9873,3.9933,3.9928,4.0036,4.0073,4.0144,4.0263,4.0317,4.0296,4.0495,4.0438,4.0445,4.0452,4.0519,4.0537,4.0553,4.0346,4.0345,4.0344,0,0,3.9596,3.9645,3.9736,3.9786,3.9862,3.9891,3.9913,3.9987,4.0012,4.0121,4.0119,4.019,4.0323,4.0374,4.0418,4.0552,4.0547,4.0576,4.0637,4.0704,4.0719,4.0732,4.0781,4.0799,4.0587,4.0587,4.0587,0,3.9637,3.9759,3.9783,3.9871,3.992,3.9919,4.0011,4.0059,4.0154,4.0188,4.0163,4.0331,4.0378,4.0509,4.0542,4.0577,4.0603,4.0568,4.0715,4.0728,4.0741,4.0788,4.0807,4.059,4.059,4.059,4.0589,0,3.9805,3.989,3.9954,4.0048,4.0104,4.0193,4.0231,4.0284,4.0293,4.0324,4.0435,4.0493,4.058,4.0611,4.062,4.0744,4.0729,4.0709,4.0665,4.0761,4.0807,4.0825,4.0595,4.0594,4.0593,4.0592,0,0,3.994,4.0046,4.007,4.0113,4.0196,4.0261,4.035,4.0436,4.0482,4.0547,4.0623,4.0736,4.0718,4.0768,4.0782,4.0841,4.0945,4.0814,4.0816,4.0838,4.1087,4.1102,4.1123,4.0942,4.0945,4.0948,4.1081,0,4.0065,4.0225,4.0249,4.039,4.0468,4.0469,4.0546,4.0605,4.0637,4.0708,4.0742,4.0823,4.0793,4.0823,4.0881,4.092,4.0996,4.0911,4.1013,4.1016,4.0997,4.1146,4.1163,4.1286,4.1099,4.1102,4.1104,0,4.0233,4.0305,4.0453,4.0526,4.056,4.063,4.0711,4.0778,4.0845,4.0864,4.0919,4.0926,4.1018,4.0969,4.1096,4.1038,4.108,4.1106,4.1111,4.1123,4.1067,4.1164,4.1326,4.1345,4.1132,4.1129,4.1127,0,4.0319,4.0451,4.0558,4.0594,4.0682,4.0731,4.0769,4.0833,4.0883,4.0954,4.0987,4.1066,4.111,4.1171,4.1199,4.116,4.1325,4.1277,4.1344,4.1343,4.138,4.1378,4.1553,4.1404,4.1404,4.1404,4.1403,0,4.0457,4.0548,4.0598,4.0664,4.0766,4.0792,4.0892,4.0929,4.0986,4.1058,4.1062,4.113,4.1162,4.1235,4.1257,4.136,4.1379,4.1397,4.1402,4.1398,4.1396,4.1428,4.142,4.1409,4.1408,4.1407,4.1406,0,4.057,4.0607,4.0724,4.0797,4.0818,4.089,4.0952,4.1016,4.1047,4.1139,4.1161,4.121,4.1296,4.133,4.1434,4.1449,4.1568,4.1565,4.1546,4.1548,4.1613,4.1607,4.1816,4.1846,4.1676,4.1677,4.1679,0,4.0657,4.0728,4.0809,4.0858,4.0899,4.0978,4.103,4.1058,4.1112,4.1193,4.1247,4.1332,4.1403,4.1539,4.1583,4.1663,4.1664,4.1731,4.1676,4.167,4.1667,4.1663,4.1671,4.1742,4.1744,4.1745,4.1747,0,4.0808,4.0823,4.0898,4.098,4.1041,4.1107,4.117,4.121,4.1248,4.1307,4.1396,4.145,4.1557,4.1642,4.1725,4.1763,4.1762,4.1763,4.1783,4.1781,4.1768,4.1777,4.1576,4.1759,4.1758,4.1757,4.1756,4.1756,4.0912,4.0975,4.1043,4.1126,4.1177,4.1236,4.13,4.134,4.1414,4.1504,4.1516,4.1611,4.1675,4.1786,4.1828,4.1902,4.1884,4.1913,4.192,4.1927,4.1933,4.1754,4.1917,4.1916,4.1916,4.1916,4.1916,0,4.1065,4.1108,4.1185,4.1274,4.134,4.1333,4.1402,4.1458,4.1542,4.1602,4.1672,4.1773,4.1856,4.1907,4.199,4.2039,4.2041,4.206,4.2058,4.2067,4.1943,4.1919,4.2058,4.2058,4.2058,4.2058,4.2058,4.2058,4.1152,4.1259,4.1282,4.1414,4.1456,4.155,4.1591,4.1646,4.1695,4.1808,4.1878,4.191,4.1967,4.2054,4.213,4.2142,4.2173,4.2195,4.2206,4.209,4.2075,4.2061,4.2039,4.2201,4.2201,4.2324,4.2325,4.2326]}]]